Total_Precipitation_Accumulation
1.23 1.35 1.18 0.83 0.69 0.64 0.55 0.45 0.38 0.26 0.23 0.30 0.27 0.19 0.13 0.14 0.15 0.14 0.14 0.17 0.17 0.16 0.17 0.21 0.31 0.41 0.47 0.52 0.59 0.65 0.73 0.83 0.97 1.09 1.14 1.12 1.18 1.17 1.08 1.03 1.05 1.07 1.07 0.99
1.27 1.04 0.56 0.40 0.43 0.54 0.62 0.59 0.42 0.31 0.26 0.31 0.26 0.17 0.11 0.11 0.13 0.13 0.13 0.15 0.15 0.17 0.20 0.22 0.31 0.44 0.48 0.48 0.56 0.63 0.66 0.74 0.80 0.84 0.94 1.02 1.02 1.05 1.06 1.02 1.02 1.07 1.08 1.01
0.87 0.58 0.34 0.42 0.52 0.64 0.65 0.59 0.43 0.37 0.33 0.35 0.33 0.26 0.13 0.10 0.10 0.11 0.13 0.14 0.14 0.15 0.18 0.19 0.25 0.40 0.47 0.48 0.53 0.60 0.66 0.68 0.77 0.84 0.98 1.06 1.14 1.14 1.08 1.02 0.97 0.99 1.03 1.02
0.59 0.39 0.42 0.54 0.54 0.58 0.65 0.43 0.40 0.41 0.55 0.62 0.46 0.49 0.17 0.11 0.11 0.11 0.12 0.13 0.14 0.16 0.18 0.19 0.22 0.32 0.42 0.45 0.55 0.62 0.71 0.78 0.79 0.87 0.97 0.96 0.94 0.93 0.85 0.87 0.88 0.93 0.96 0.97
0.66 0.44 0.52 0.60 0.44 0.42 0.48 0.39 0.45 0.52 0.65 0.71 0.48 0.50 0.20 0.10 0.15 0.16 0.16 0.15 0.15 0.16 0.16 0.16 0.19 0.27 0.38 0.46 0.56 0.66 0.68 0.81 0.87 0.87 0.95 0.96 0.90 0.85 0.86 0.91 0.96 0.96 0.95 0.96
0.53 0.42 0.51 0.46 0.35 0.38 0.48 0.62 0.80 0.85 1.11 1.22 0.47 0.39 0.24 0.15 0.19 0.17 0.14 0.16 0.19 0.19 0.18 0.19 0.19 0.25 0.34 0.42 0.52 0.59 0.67 0.76 0.88 0.89 0.93 0.93 0.89 0.85 0.88 0.92 0.99 1.00 0.99 1.01
0.82 0.61 0.57 0.50 0.61 0.68 0.83 1.24 1.94 2.14 2.03 1.14 0.25 0.26 0.26 0.15 0.13 0.14 0.12 0.13 0.20 0.24 0.24 0.23 0.21 0.24 0.30 0.38 0.47 0.55 0.61 0.74 0.83 0.85 0.87 0.88 0.86 0.84 0.85 0.89 0.94 0.97 0.98 1.01
0.99 0.84 0.62 0.61 0.75 0.91 0.90 1.03 1.38 1.44 1.03 0.42 0.17 0.20 0.18 0.11 0.07 0.07 0.07 0.09 0.12 0.17 0.25 0.26 0.22 0.25 0.29 0.36 0.42 0.52 0.57 0.67 0.79 0.79 0.80 0.84 0.84 0.82 0.82 0.85 0.88 0.92 0.88 0.89
0.99 0.75 0.46 0.44 0.44 0.59 0.83 0.83 0.69 0.88 0.63 0.37 0.25 0.17 0.13 0.09 0.07 0.06 0.08 0.09 0.11 0.12 0.18 0.26 0.23 0.27 0.31 0.38 0.40 0.48 0.57 0.65 0.78 0.82 0.80 0.82 0.84 0.84 0.80 0.83 0.86 0.92 0.90 0.83
1.12 0.91 0.52 0.48 0.54 0.66 0.74 0.79 0.93 1.27 1.03 0.57 0.28 0.18 0.20 0.15 0.10 0.08 0.10 0.12 0.12 0.12 0.16 0.21 0.21 0.26 0.33 0.38 0.40 0.44 0.55 0.63 0.72 0.81 0.82 0.85 0.89 0.89 0.85 0.84 0.83 0.83 0.88 0.90
1.05 1.09 0.78 0.72 0.86 0.84 0.79 1.00 1.24 1.27 0.94 0.72 0.45 0.30 0.26 0.20 0.13 0.10 0.11 0.14 0.15 0.13 0.16 0.19 0.20 0.25 0.32 0.38 0.38 0.41 0.48 0.60 0.70 0.76 0.79 0.84 0.95 0.94 0.93 0.92 0.87 0.82 0.81 0.88
1.07 1.26 1.01 0.74 0.60 0.54 0.69 0.85 1.02 1.27 0.99 0.58 0.51 0.38 0.26 0.18 0.14 0.11 0.10 0.12 0.15 0.15 0.17 0.17 0.19 0.24 0.29 0.34 0.37 0.42 0.47 0.52 0.64 0.75 0.78 0.81 0.92 0.99 0.97 1.03 1.01 0.91 0.83 0.84
1.37 1.62 1.46 1.22 1.04 0.84 0.88 0.79 0.81 0.90 0.93 0.70 0.58 0.41 0.25 0.18 0.14 0.11 0.10 0.11 0.14 0.16 0.20 0.18 0.18 0.22 0.27 0.31 0.36 0.39 0.45 0.48 0.57 0.72 0.78 0.82 0.87 0.96 0.97 1.01 1.09 1.07 1.04 1.06
1.59 1.69 1.26 1.18 1.07 0.95 0.90 0.69 0.67 0.91 1.11 0.75 0.48 0.36 0.27 0.22 0.18 0.15 0.13 0.13 0.15 0.19 0.20 0.18 0.18 0.21 0.26 0.30 0.34 0.36 0.39 0.46 0.54 0.69 0.81 0.83 0.87 0.90 0.94 0.99 1.04 1.16 1.23 1.31
1.56 1.49 0.69 0.43 0.41 0.48 0.55 0.48 0.50 0.66 0.68 0.59 0.37 0.33 0.37 0.29 0.23 0.21 0.18 0.16 0.17 0.20 0.19 0.18 0.19 0.22 0.25 0.29 0.32 0.32 0.34 0.40 0.50 0.65 0.75 0.82 0.88 0.99 1.06 1.08 1.10 1.14 1.27 1.36
1.42 1.37 0.68 0.39 0.27 0.33 0.40 0.32 0.33 0.37 0.35 0.37 0.31 0.36 0.37 0.29 0.22 0.20 0.19 0.18 0.19 0.22 0.20 0.19 0.20 0.24 0.25 0.27 0.31 0.29 0.31 0.38 0.47 0.62 0.69 0.77 0.91 1.03 1.16 1.18 1.23 1.24 1.29 1.38
1.23 1.18 1.02 0.66 0.32 0.49 0.61 0.38 0.32 0.34 0.33 0.32 0.38 0.40 0.34 0.30 0.27 0.24 0.21 0.21 0.20 0.20 0.20 0.20 0.22 0.26 0.27 0.28 0.28 0.29 0.31 0.36 0.41 0.54 0.65 0.71 0.85 0.98 1.08 1.12 1.15 1.18 1.12 1.11
0.98 1.08 1.32 0.96 0.72 1.03 0.57 0.30 0.27 0.29 0.33 0.33 0.35 0.34 0.32 0.33 0.32 0.27 0.23 0.21 0.19 0.18 0.20 0.20 0.21 0.22 0.24 0.27 0.28 0.28 0.29 0.33 0.41 0.48 0.61 0.64 0.74 0.88 0.94 1.01 1.06 1.06 0.99 0.98
0.59 1.02 1.52 1.29 0.99 0.61 0.30 0.23 0.31 0.37 0.45 0.36 0.31 0.30 0.29 0.29 0.31 0.34 0.29 0.22 0.20 0.19 0.19 0.20 0.19 0.19 0.20 0.23 0.27 0.27 0.29 0.31 0.36 0.44 0.53 0.59 0.67 0.82 0.83 0.89 0.99 0.98 0.99 0.96
0.59 0.99 1.62 1.41 1.08 0.58 0.31 0.18 0.22 0.34 0.55 0.34 0.27 0.30 0.32 0.31 0.46 0.45 0.36 0.28 0.24 0.20 0.18 0.20 0.19 0.17 0.19 0.21 0.22 0.23 0.25 0.28 0.35 0.42 0.49 0.53 0.59 0.71 0.72 0.73 0.80 0.85 0.87 0.89
0.93 1.36 1.54 1.16 0.90 0.45 0.26 0.20 0.23 0.58 0.70 0.33 0.28 0.30 0.32 0.37 0.47 0.43 0.36 0.31 0.26 0.24 0.23 0.21 0.21 0.20 0.21 0.21 0.22 0.22 0.23 0.25 0.30 0.36 0.42 0.48 0.53 0.60 0.62 0.65 0.68 0.73 0.77 0.82
0.66 0.92 0.93 0.86 0.94 0.54 0.26 0.28 0.49 0.61 0.36 0.28 0.28 0.27 0.29 0.29 0.28 0.29 0.30 0.30 0.27 0.27 0.27 0.24 0.24 0.23 0.22 0.23 0.22 0.20 0.22 0.24 0.27 0.33 0.39 0.45 0.50 0.52 0.55 0.59 0.65 0.67 0.76 0.86
0.47 0.60 0.66 0.64 0.60 0.44 0.33 0.38 0.41 0.31 0.26 0.24 0.25 0.27 0.28 0.28 0.27 0.27 0.28 0.27 0.26 0.26 0.27 0.25 0.26 0.27 0.26 0.25 0.24 0.21 0.21 0.23 0.28 0.34 0.38 0.45 0.48 0.47 0.54 0.61 0.68 0.71 0.78 0.87
0.38 0.34 0.42 0.40 0.33 0.28 0.28 0.28 0.27 0.24 0.22 0.21 0.22 0.27 0.26 0.27 0.26 0.27 0.26 0.26 0.27 0.25 0.24 0.22 0.25 0.28 0.28 0.27 0.25 0.23 0.21 0.25 0.29 0.34 0.38 0.44 0.51 0.51 0.51 0.58 0.67 0.71 0.75 0.89
0.32 0.31 0.37 0.34 0.26 0.22 0.20 0.21 0.23 0.22 0.19 0.17 0.19 0.22 0.22 0.22 0.23 0.24 0.26 0.26 0.27 0.27 0.25 0.23 0.23 0.25 0.27 0.26 0.23 0.22 0.23 0.28 0.31 0.34 0.38 0.44 0.53 0.56 0.53 0.55 0.61 0.68 0.71 0.92
0.24 0.29 0.35 0.30 0.21 0.22 0.20 0.17 0.16 0.18 0.18 0.17 0.19 0.22 0.21 0.20 0.23 0.23 0.25 0.26 0.25 0.25 0.26 0.24 0.22 0.23 0.24 0.22 0.22 0.23 0.25 0.30 0.36 0.40 0.43 0.46 0.54 0.57 0.55 0.55 0.60 0.68 0.71 0.78